This is the latest recevied weather packets stored in our database for station/object KD5FHA. If no packets are shown the sender has not sent any weather packets the latest 10 day(s).
| Time | Temp. | Humidity | Pressure | Rain* | Wind** | Luminosity | Snow |
|---|---|---|---|---|---|---|---|
| 1778110393 | 15° C | 91% | 1014.4 hPa | 0 mm | - | 106 W/m² | - |
| 1778110090 | 15° C | 90% | 1014.3 hPa | 0 mm | - | 127 W/m² | - |
| 1778109786 | 15° C | 90% | 1014.2 hPa | 2.29 mm | - | 108 W/m² | - |
| 1778109483 | 15° C | 88% | 1014.4 hPa | 11.94 mm | - | 129 W/m² | - |
| 1778109181 | 15.56° C | 84% | 1013.9 hPa | 8.38 mm | - | 112 W/m² | - |
| 1778108879 | 16.11° C | 80% | 1014.5 hPa | 0 mm | - | 34 W/m² | - |
| 1778108575 | 16.11° C | 77% | 1014.7 hPa | 0 mm | - | 25 W/m² | - |
| 1778108272 | 16.67° C | 77% | 1014.1 hPa | 0 mm | - | 79 W/m² | - |
| 1778107968 | 16.67° C | 75% | 1014 hPa | 0 mm | - | 132 W/m² | - |
| 1778107664 | 16.67° C | 75% | 1014.3 hPa | 0 mm | - | 105 W/m² | - |
| 1778107362 | 16.67° C | 75% | 1014.4 hPa | 0 mm | - | 111 W/m² | - |
| 1778107058 | 16.67° C | 75% | 1014.3 hPa | 0 mm | - | 94 W/m² | - |
| 1778106754 | 16.67° C | 74% | 1014.3 hPa | 0 mm | - | 69 W/m² | - |
| 1778106451 | 16.67° C | 74% | 1014.1 hPa | 0 mm | - | 124 W/m² | - |
| 1778106146 | 16.67° C | 74% | 1014 hPa | 0 mm | - | 110 W/m² | - |
| 1778105845 | 16.67° C | 74% | 1014 hPa | 0 mm | - | 134 W/m² | - |
| 1778105543 | 16.67° C | 74% | 1013.9 hPa | 0 mm | - | 152 W/m² | - |
| 1778105240 | 16.67° C | 74% | 1014.2 hPa | 0 mm | - | 157 W/m² | - |
| 1778104934 | 16.67° C | 73% | 1014.2 hPa | 0 mm | - | 183 W/m² | - |
| 1778104631 | 16.67° C | 74% | 1014 hPa | 0 mm | - | 172 W/m² | - |
| 1778104327 | 16.67° C | 74% | 1014.1 hPa | 0 mm | - | 199 W/m² | - |
| 1778104023 | 16.67° C | 74% | 1013.7 hPa | 0 mm | - | 166 W/m² | - |
| 1778103721 | 16.67° C | 74% | 1014.3 hPa | 0 mm | - | 141 W/m² | - |
| 1778103419 | 16.11° C | 74% | 1014 hPa | 0 mm | - | 154 W/m² | - |
| 1778103116 | 16.11° C | 74% | 1013.9 hPa | 0 mm | - | 179 W/m² | - |
* Rain latest hour (hover to see other rain measurements)
** Current wind speed in m/s (hover to see current wind gust speed)